Location: Santaluz Observatory
(32.9930°N, 117.1510°W)
Time: 11:53:35
(UTC-08:00)

Hubble Space Telescope - Visible Passes

Search period start: 02 December 2016 00:00
Search period end: 12 December 2016 00:00
Orbit: 538 x 542 km, 28.5° (Epoch: 02 December)

Date Brightness Start Highest point End Pass type
(mag) Time Alt. Az. Time Alt. Az. Time Alt. Az.
02 Dec 2.6 17:55:23 10° WSW 17:58:54 27° SSW 18:02:25 10° SE visible
03 Dec 2.9 17:45:38 10° WSW 17:48:56 23° SSW 17:52:14 10° SE visible
04 Dec 3.2 17:35:58 10° WSW 17:38:57 19° SSW 17:41:56 10° SSE visible
05 Dec 3.5 17:26:26 10° WSW 17:28:57 16° SSW 17:31:30 10° SSE visible
06 Dec 3.7 17:17:08 10° SW 17:18:57 13° SSW 17:20:47 10° S visible
